STARLINK-32753 (62481 NORAD) Tracking and Keplerian Element Data

This shows tracking and keplerian element data for the satellite.

Feedback or suggestion? Click here.




ElementValue
Catalog62481
NameSTARLINK-32753
Epoch Orbit667
Epoch Day35.20990719
Epoch Year2025
RAAN109.9743
Inclination43.0009
Eccentricity0.0001135
Argument of Perigee264.5589
Mean Anonmoly95.5139
Mean Motion15.42281364
Decay Rate-0.00187363
L11 62481U 24254V 25035.20990719 -.00187363 00000+0 -43525-2 0 9990
L22 62481 43.0009 109.9743 0001135 264.5589 95.5139 15.42281364 6678



Live tracking and technical data element details for STARLINK-32753 (NORAD 62481). STARLINK-32753 can be tracked NOW for your location showing map with azimuth and elevation plus other details from your city location.







IsCatalogInMostPopularTable: catalog: 62481, numindb: 19
Update: records affected: 1



GetName: 62481 STARLINK-32753

Hit Count: updated at: Sun, 18 May 2025 22:00:25 GMT